Wind_Speed
7 7 8 9 9 10 10 11 12 12 12 13 14 15 15 14 14 13 14 15 15 16 16 15 15 15 14 15 16 14 13 14 15 15 15 15 15 15 15 15 15 14 14 15
7 8 8 9 9 10 12 12 12 11 11 12 14 14 15 14 14 13 13 13 14 16 16 16 17 16 16 16 17 15 14 15 15 15 14 15 15 15 15 15 15 14 14 15
8 8 9 9 9 9 10 12 11 10 10 12 14 15 14 13 12 12 12 13 14 14 15 16 16 16 16 16 16 15 14 15 15 15 15 15 15 16 16 16 16 16 15 16
8 8 9 9 9 10 10 10 10 11 10 11 13 13 13 13 13 12 12 12 13 14 14 15 16 16 16 16 15 14 14 15 15 15 15 16 16 16 17 17 17 17 16 17
9 8 8 9 9 9 10 9 9 10 10 11 12 12 11 11 12 12 12 12 13 13 14 14 16 16 16 16 15 15 14 15 15 15 15 16 16 16 17 17 17 16 16 16
8 8 8 8 8 8 8 8 7 8 10 12 12 12 11 11 12 12 12 14 13 13 13 14 15 15 14 14 14 13 13 13 14 13 14 15 15 16 15 15 15 14 15 15
7 8 7 7 6 6 7 7 6 7 8 10 11 12 13 12 11 10 10 12 12 12 13 14 14 14 13 14 14 13 13 12 13 12 13 13 13 14 14 14 14 14 14 14
9 8 8 6 5 5 6 6 7 7 7 8 10 11 11 10 10 10 10 11 11 12 12 13 14 13 12 13 14 13 11 12 12 12 12 12 12 12 13 12 12 12 12 12
7 7 7 6 5 5 4 5 5 6 7 8 9 9 9 9 10 10 11 11 11 11 12 12 12 12 12 12 12 11 11 12 12 12 11 12 12 12 12 12 11 11 10 10
7 7 7 7 6 5 4 3 4 5 7 8 8 9 9 9 11 11 11 11 10 11 10 11 11 11 11 11 11 11 10 11 12 12 11 10 11 11 11 11 10 9 9 9
7 7 7 6 6 5 3 3 4 5 5 7 8 8 9 9 10 10 11 11 10 9 9 11 10 10 10 10 10 10 10 9 10 10 10 10 10 9 9 9 8 9 9 9
7 7 7 6 5 5 4 4 4 5 5 7 8 8 8 7 8 8 9 9 9 9 10 10 10 10 9 9 10 9 9 9 9 9 9 9 9 9 8 8 8 8 8 8
8 7 7 5 5 5 5 5 5 5 5 7 7 7 7 6 7 8 9 8 8 8 9 9 9 8 8 9 10 10 9 9 8 8 8 8 8 8 8 8 7 8 8 8
8 7 6 6 6 5 5 5 5 5 6 7 7 7 7 7 7 7 7 6 7 8 8 8 8 8 9 9 10 9 9 8 8 7 7 8 8 8 7 7 7 7 7 8
8 7 6 6 6 5 5 4 5 6 6 7 7 7 6 7 8 7 6 6 7 8 8 8 9 9 9 10 9 8 8 7 7 7 7 7 7 7 6 6 6 6 7 7
8 7 6 6 7 6 5 5 5 6 6 6 6 6 6 6 7 7 7 7 7 8 8 9 10 10 10 9 8 7 8 7 7 7 7 7 7 6 6 6 6 6 7 7
8 8 7 7 7 7 5 5 5 6 7 7 7 7 7 6 7 7 7 7 7 8 8 9 9 9 9 8 7 8 8 8 7 6 7 7 7 6 6 5 6 7 7 7
9 8 9 8 8 8 8 7 7 7 7 6 6 6 7 7 8 8 7 6 7 7 8 9 8 8 8 8 8 8 8 7 7 6 6 7 7 6 5 5 6 7 7 6
9 9 10 10 10 10 10 9 7 7 7 7 6 6 7 7 8 7 7 7 7 8 8 9 8 8 8 9 9 8 8 7 7 7 7 6 6 6 5 5 6 6 7 7
10 10 11 11 11 11 10 9 8 8 7 7 8 8 8 9 9 8 8 8 8 8 7 8 8 8 9 9 9 8 8 8 7 6 6 6 6 6 6 6 7 7 7 8
11 11 11 12 12 11 10 10 9 8 8 8 9 9 10 10 10 9 8 8 8 7 7 8 8 8 9 9 9 8 8 8 7 6 6 6 6 6 7 7 7 8 9 9
13 12 12 12 12 11 10 10 10 9 10 10 10 10 10 10 9 8 8 8 8 7 7 8 8 8 8 8 8 8 8 7 6 6 6 6 7 7 7 8 8 9 10 11
14 14 14 13 13 12 12 12 12 12 12 11 12 12 11 10 9 8 8 8 8 8 8 8 8 7 8 8 8 7 7 7 7 7 7 7 7 7 8 9 9 10 11 12
15 15 15 15 15 14 14 13 13 13 13 13 11 11 11 10 10 8 8 8 8 8 8 8 8 7 8 8 8 8 7 7 7 7 8 8 8 8 8 9 10 11 12 13
15 15 15 15 14 14 13 13 13 13 13 12 12 11 11 11 9 8 7 7 7 8 8 8 8 9 8 8 8 8 7 7 7 7 8 9 9 10 10 10 11 12 13 14
15 16 16 16 15 15 15 14 14 15 14 13 12 12 11 11 10 9 8 8 8 8 8 8 9 9 9 9 9 8 8 7 8 8 9 10 10 11 11 11 12 13 14 14
Wind_Direction
283 275 278 280 282 282 283 280 274 265 259 257 263 267 271 278 288 288 288 289 294 294 297 294 294 295 292 289 289 290 290 291 289 288 285 284 283 281 281 283 284 281 276 275
287 285 287 285 284 276 272 266 264 263 260 261 264 266 271 278 287 288 287 290 295 299 300 298 295 296 291 291 291 287 289 291 287 285 286 286 286 286 286 286 284 281 280 279
302 295 289 283 272 269 277 273 266 266 264 265 266 268 270 276 283 289 294 297 298 302 303 302 299 293 292 293 291 286 286 286 285 285 286 285 288 286 288 289 286 283 283 281
307 297 286 283 279 282 284 278 271 266 266 263 269 279 275 279 283 290 294 295 299 302 304 303 300 297 295 294 289 284 285 286 285 285 287 286 287 286 286 285 287 284 281 279
310 303 296 289 283 284 284 280 272 270 264 262 268 277 276 283 287 292 297 301 304 303 302 301 299 298 297 295 290 288 287 288 285 285 286 288 288 288 287 287 289 287 283 279
320 315 312 300 287 283 284 283 276 268 260 263 271 274 279 284 293 295 296 302 300 302 303 300 298 300 301 299 295 292 290 288 288 287 288 290 290 290 289 290 288 285 281 279
331 328 320 306 289 280 281 280 273 265 264 266 274 276 283 287 296 303 304 303 302 302 305 305 305 305 303 302 298 293 291 293 291 290 292 294 293 293 291 289 286 282 281 280
322 328 326 320 309 291 292 284 281 276 272 271 276 282 287 292 296 299 303 304 304 310 309 307 307 309 304 305 306 296 294 292 293 295 296 295 294 293 293 291 289 284 281 279
327 333 330 325 320 302 290 286 295 288 280 280 279 287 294 290 298 296 300 303 311 316 310 309 308 312 309 308 308 304 298 295 297 297 296 296 295 293 291 289 288 288 284 282
326 328 334 329 322 320 307 299 310 299 289 288 286 297 301 291 293 302 310 309 309 315 320 319 315 313 313 313 312 311 303 299 297 296 300 301 301 298 293 289 287 286 283 282
325 320 324 326 328 328 323 324 319 316 305 306 307 311 308 307 303 310 314 316 317 321 325 327 323 316 315 315 316 314 309 305 300 297 300 303 306 305 299 296 289 285 283 283
323 316 318 322 339 340 333 332 322 331 334 328 322 324 319 319 318 314 315 320 322 327 328 327 322 318 319 320 320 317 313 310 307 302 299 302 305 307 305 299 291 287 289 287
321 319 321 327 333 333 330 324 320 331 331 332 333 336 325 322 318 316 319 320 323 329 332 329 325 323 324 325 323 317 316 316 317 315 310 306 304 302 304 301 295 288 289 290
322 318 321 323 332 335 333 334 332 326 328 338 335 331 328 328 323 316 321 329 331 331 329 329 328 327 327 328 325 324 319 317 320 319 317 315 311 306 307 306 301 291 293 293
315 309 313 318 318 314 316 329 330 324 333 343 343 336 334 335 332 330 328 328 327 327 326 326 327 328 332 330 328 329 329 325 325 326 328 328 318 314 312 309 300 294 299 304
302 296 294 300 304 301 315 318 318 327 334 343 349 348 341 336 333 332 327 325 326 327 329 328 326 328 331 331 332 338 339 334 328 329 331 333 330 320 313 304 301 299 303 305
293 290 287 285 292 296 301 315 314 320 330 341 343 346 342 341 338 335 329 322 325 329 331 331 330 331 335 336 337 338 337 335 332 332 332 334 337 332 317 302 300 305 308 307
289 287 286 283 286 291 301 305 307 314 317 328 325 328 333 337 337 335 333 333 329 328 331 334 335 338 341 343 338 334 334 333 334 335 336 335 335 338 334 324 318 317 314 315
285 284 281 284 288 288 296 303 305 311 310 307 310 314 321 325 327 327 328 326 325 326 329 334 335 336 341 342 338 336 337 334 329 329 333 334 334 333 329 325 328 324 321 320
281 276 276 282 290 290 294 302 303 301 297 296 298 304 309 312 315 318 319 317 318 322 327 332 331 330 333 335 334 335 336 333 330 329 331 332 332 329 325 322 324 322 321 320
283 279 280 285 288 290 290 294 294 289 296 295 294 296 300 303 309 314 313 314 318 319 324 330 331 331 333 334 333 330 333 332 330 330 332 333 333 327 325 323 321 320 320 320
287 282 283 284 283 285 289 288 285 283 290 293 291 293 297 303 303 307 307 307 309 312 316 322 325 329 333 336 336 334 335 335 333 333 334 333 331 328 326 325 324 324 323 323
285 282 281 281 281 281 283 280 278 278 283 287 287 286 294 301 299 299 299 300 305 309 316 319 321 325 330 333 334 334 331 334 334 332 330 330 328 323 323 323 325 325 325 323
281 281 282 283 283 282 283 284 280 279 281 287 290 287 289 294 295 296 297 298 302 306 312 316 319 320 324 326 327 329 331 330 325 326 327 328 328 322 320 322 323 324 324 323
278 279 280 281 284 284 282 281 278 279 282 287 287 284 285 289 290 292 292 294 298 305 308 312 317 318 316 318 321 323 325 325 325 328 328 325 326 325 321 325 324 324 324 323
273 273 274 277 278 278 281 283 277 278 279 282 283 280 280 283 285 283 283 286 290 295 301 306 310 313 314 315 314 315 316 318 320 321 322 324 324 326 324 328 329 326 323 324
Height
5848 5848 5847 5847 5846 5846 5845 5845 5844 5845 5844 5844 5843 5842 5841 5841 5840 5839 5838 5838 5837 5837 5835 5834 5833 5832 5831 5830 5828 5828 5828 5827 5827 5826 5825 5824 5823 5822 5820 5819 5818 5818 5817 5816
5846 5845 5844 5843 5843 5843 5842 5842 5841 5841 5841 5840 5839 5839 5839 5838 5837 5837 5835 5835 5835 5834 5832 5831 5830 5829 5827 5826 5825 5824 5824 5824 5823 5822 5821 5820 5819 5817 5817 5815 5814 5813 5813 5812
5843 5843 5841 5841 5840 5840 5840 5839 5839 5839 5838 5837 5836 5836 5836 5835 5834 5834 5833 5833 5832 5830 5829 5828 5826 5825 5824 5822 5821 5820 5820 5820 5819 5818 5817 5816 5815 5814 5812 5811 5810 5809 5808 5807
5841 5840 5839 5838 5837 5837 5836 5837 5836 5835 5834 5834 5834 5833 5833 5832 5832 5831 5830 5830 5829 5827 5826 5825 5823 5821 5820 5819 5818 5816 5816 5815 5815 5813 5812 5812 5811 5810 5808 5807 5806 5804 5803 5803
5838 5837 5836 5835 5835 5834 5834 5833 5833 5832 5832 5832 5831 5831 5831 5829 5829 5828 5827 5827 5826 5824 5823 5822 5820 5818 5817 5815 5814 5812 5811 5810 5809 5809 5808 5807 5806 5805 5803 5802 5801 5799 5798 5798
5836 5835 5833 5832 5831 5831 5831 5830 5830 5830 5829 5829 5829 5828 5828 5827 5827 5826 5825 5824 5823 5822 5820 5819 5817 5815 5814 5812 5810 5809 5808 5806 5805 5804 5803 5802 5801 5800 5799 5797 5796 5795 5794 5793
5835 5833 5831 5830 5829 5829 5828 5828 5828 5827 5826 5826 5826 5825 5826 5825 5824 5823 5822 5821 5820 5818 5817 5815 5813 5812 5810 5809 5807 5806 5804 5803 5802 5801 5800 5799 5798 5796 5795 5793 5792 5791 5790 5789
5832 5831 5830 5828 5827 5826 5825 5825 5825 5824 5823 5823 5823 5822 5823 5822 5821 5820 5819 5818 5817 5815 5813 5812 5811 5808 5807 5805 5804 5802 5801 5801 5800 5798 5797 5796 5795 5793 5791 5790 5788 5787 5786 5786
5831 5830 5828 5826 5825 5824 5824 5823 5823 5823 5821 5821 5820 5820 5820 5819 5818 5817 5816 5815 5814 5813 5811 5810 5808 5806 5804 5802 5801 5799 5798 5798 5797 5795 5794 5792 5791 5789 5787 5786 5785 5783 5783 5782
5829 5828 5827 5825 5824 5823 5823 5822 5822 5821 5820 5818 5818 5818 5817 5816 5815 5814 5813 5813 5812 5810 5809 5807 5805 5804 5802 5800 5798 5797 5796 5794 5793 5792 5791 5789 5787 5785 5783 5782 5781 5780 5780 5780
5828 5827 5826 5824 5823 5822 5822 5821 5820 5819 5818 5817 5816 5818 5815 5814 5813 5812 5812 5811 5809 5808 5807 5805 5803 5801 5799 5798 5796 5795 5793 5792 5790 5789 5788 5786 5784 5782 5781 5780 5779 5778 5778 5777
5826 5826 5824 5824 5822 5821 5820 5819 5819 5818 5817 5816 5815 5818 5813 5812 5811 5810 5810 5809 5808 5806 5805 5803 5801 5799 5798 5796 5794 5793 5791 5789 5788 5786 5785 5783 5782 5780 5779 5778 5777 5776 5775 5775
5825 5824 5823 5822 5823 5821 5819 5818 5817 5817 5816 5815 5814 5816 5812 5810 5809 5808 5808 5807 5805 5804 5803 5801 5799 5798 5796 5794 5792 5790 5789 5787 5785 5784 5782 5781 5780 5778 5777 5776 5775 5774 5773 5772
5824 5823 5823 5822 5821 5819 5818 5817 5816 5815 5815 5813 5812 5812 5810 5809 5807 5806 5806 5805 5804 5802 5801 5799 5798 5796 5794 5792 5790 5788 5787 5785 5784 5782 5780 5779 5777 5776 5775 5774 5773 5772 5771 5770
5823 5822 5821 5820 5818 5817 5817 5816 5815 5814 5813 5812 5811 5809 5809 5807 5806 5805 5804 5803 5802 5801 5800 5798 5796 5794 5792 5790 5788 5787 5785 5783 5782 5780 5779 5777 5776 5774 5773 5772 5771 5771 5770 5769
5821 5821 5820 5818 5817 5816 5816 5815 5814 5813 5812 5811 5810 5809 5807 5806 5805 5804 5803 5802 5801 5799 5798 5797 5795 5793 5791 5789 5787 5785 5783 5782 5780 5778 5777 5776 5774 5773 5772 5771 5770 5769 5768 5767
5820 5819 5818 5817 5816 5815 5815 5814 5813 5812 5811 5810 5808 5808 5806 5805 5804 5803 5801 5800 5799 5798 5797 5795 5793 5791 5789 5787 5785 5784 5782 5780 5779 5777 5776 5775 5773 5772 5771 5770 5769 5768 5767 5766
5817 5817 5816 5815 5815 5814 5815 5812 5812 5811 5809 5808 5807 5806 5805 5804 5803 5801 5800 5799 5798 5797 5795 5793 5791 5789 5788 5786 5784 5782 5781 5779 5778 5776 5775 5773 5772 5771 5770 5769 5768 5767 5765 5764
5815 5814 5813 5812 5812 5811 5811 5810 5810 5809 5808 5807 5806 5804 5803 5802 5801 5800 5799 5798 5797 5795 5793 5792 5790 5788 5787 5785 5783 5781 5779 5778 5776 5775 5774 5772 5771 5770 5769 5768 5767 5766 5764 5763
5812 5812 5811 5810 5809 5808 5810 5809 5807 5807 5806 5805 5804 5803 5802 5801 5800 5799 5798 5796 5795 5793 5792 5790 5789 5787 5785 5784 5782 5780 5778 5776 5775 5773 5772 5771 5770 5769 5768 5767 5766 5764 5763 5761
5809 5809 5808 5807 5806 5805 5806 5805 5805 5806 5805 5803 5802 5801 5799 5798 5797 5797 5795 5794 5793 5792 5790 5789 5787 5786 5784 5782 5780 5779 5777 5775 5774 5772 5771 5770 5769 5768 5767 5766 5764 5763 5761 5759
5805 5805 5804 5803 5803 5805 5803 5803 5803 5802 5801 5800 5799 5798 5796 5795 5795 5794 5793 5792 5791 5790 5789 5788 5786 5784 5783 5781 5779 5777 5776 5774 5772 5771 5770 5769 5768 5767 5765 5764 5763 5761 5759 5757
5802 5802 5801 5801 5802 5800 5799 5798 5798 5797 5797 5797 5796 5795 5794 5793 5792 5792 5791 5790 5789 5788 5787 5786 5785 5783 5782 5780 5778 5776 5775 5773 5772 5770 5769 5768 5767 5765 5764 5763 5761 5759 5757 5754
5798 5797 5797 5796 5796 5795 5795 5794 5794 5794 5794 5793 5792 5792 5791 5791 5790 5789 5789 5788 5787 5787 5786 5784 5783 5782 5780 5779 5777 5776 5774 5772 5771 5769 5768 5767 5765 5764 5762 5760 5759 5757 5754 5751
5794 5793 5792 5791 5792 5791 5791 5790 5790 5790 5790 5789 5789 5788 5788 5787 5787 5787 5786 5786 5785 5785 5784 5783 5781 5780 5779 5777 5776 5774 5773 5771 5770 5768 5767 5765 5764 5762 5760 5758 5756 5754 5751 5748
5790 5789 5788 5788 5788 5787 5787 5786 5786 5786 5786 5786 5785 5785 5784 5784 5784 5784 5784 5783 5783 5782 5781 5780 5779 5778 5777 5775 5774 5772 5771 5769 5768 5767 5765 5763 5762 5760 5758 5756 5753 5751 5748 5745